Location: 22
(39.7117°N, 89.5929°W)
Time: 08:24:51
(UTC-05:00)

ARIANE 6 FM1 Upper Stage - Pass Details

Date: 13 April 2026
Orbit: 526 x 601 km, 62.0° (Epoch: 18 May)

Event Time Altitude Azimuth Distance (km) Brightness Sun altitude
Rises 04:00:09 0° 325° (NW) 2,665 6.2 -25.7°
Enters shadow 04:00:39 - 326° (NW) 2,461 6.0 -25.6°
Exits shadow 04:10:03 11° 139° (SE) 1,681 5.1 -24.2°
Drops below altitude 10° 04:10:17 10° 140° (SE) 1,774 5.2 -24.1°
Sets 04:12:29 0° 142° (SE) 2,668 6.2 -23.8°
